Wind_Speed
16 19 22 24 27 30 32 35 38 40 41 42 43 43 45 45 46 45 45 45 44 43 43 43 42 41 39 38 36 34 32 31 29 28 27 26 24 24
15 17 20 23 26 28 31 33 36 39 40 42 44 45 45 46 47 47 47 46 45 44 44 44 44 44 43 42 39 37 36 34 32 31 29 28 27 26
14 16 18 21 24 27 30 32 34 37 39 41 44 45 46 47 47 47 47 48 48 46 45 45 44 44 44 44 42 40 39 37 36 34 32 31 30 28
13 15 17 19 22 24 27 30 33 35 37 40 42 45 46 48 48 48 47 48 48 47 46 45 44 43 44 44 44 43 42 40 38 37 35 34 32 31
15 15 16 18 20 22 24 28 31 34 36 38 41 43 45 46 47 48 48 48 48 49 48 47 45 44 44 45 45 44 44 43 41 39 38 36 35 33
16 16 17 17 18 20 22 24 27 30 33 36 39 42 44 46 46 46 48 48 48 50 49 48 47 46 46 45 45 45 45 44 43 42 40 39 37 35
18 18 18 17 18 18 19 21 23 26 29 32 36 39 42 44 45 45 46 47 47 48 48 48 48 47 47 46 45 45 45 44 44 43 42 41 39 37
20 19 18 18 18 17 17 17 19 22 24 28 31 34 37 40 42 44 45 46 46 47 48 49 49 48 47 47 46 45 46 46 44 43 43 42 41 39
20 20 19 18 18 17 16 16 16 18 20 23 26 29 32 35 38 40 42 44 45 45 46 47 48 48 47 46 46 45 45 45 45 44 44 43 41 40
20 20 19 18 17 16 16 15 14 15 16 19 22 25 28 31 34 36 39 41 42 43 44 44 46 47 47 46 46 46 45 45 45 44 44 44 42 42
20 20 19 18 18 17 16 15 14 14 15 16 18 21 24 27 30 32 35 37 38 40 41 42 43 45 47 47 45 45 45 46 46 45 45 44 43 42
20 19 19 19 18 17 16 15 15 14 14 16 17 19 22 24 26 29 32 34 36 37 39 41 41 43 44 45 45 45 45 45 46 45 44 45 44 44
21 20 19 19 18 18 17 16 15 15 14 15 16 17 19 22 24 26 29 32 34 36 38 39 40 41 42 43 44 45 45 45 44 44 44 44 44 45
21 21 20 20 19 19 18 17 16 16 15 14 15 15 17 19 22 24 27 30 33 35 37 38 39 40 41 42 43 43 44 44 44 43 44 43 43 44
22 22 21 21 20 20 19 18 17 16 16 15 15 15 16 17 19 22 24 27 29 32 35 36 38 40 40 41 42 42 43 44 44 45 45 44 43 44
23 23 22 22 21 21 20 19 18 17 17 16 16 16 16 17 18 19 22 24 27 29 31 33 35 37 38 39 40 41 43 44 45 45 45 45 45 44
24 24 24 23 23 22 21 21 20 19 18 18 17 17 18 18 18 18 19 22 25 27 29 31 33 35 36 37 38 39 41 42 43 44 44 44 45 44
25 25 25 25 24 24 23 23 22 21 21 20 19 19 19 19 19 19 19 20 22 25 27 29 30 32 34 36 37 38 38 39 40 41 42 42 43 42
27 26 26 26 26 26 25 25 24 24 23 22 22 21 20 20 19 19 20 21 21 22 24 26 28 30 33 35 35 36 36 37 39 40 40 41 41 41
29 29 29 29 29 28 28 28 27 27 26 25 24 23 23 22 22 21 21 21 21 22 22 24 26 28 30 32 33 34 35 36 37 37 38 39 40 40
32 32 31 31 32 32 31 31 30 30 29 29 28 27 26 25 24 24 23 23 23 22 22 23 25 26 28 29 31 32 34 35 35 35 36 37 37 38
35 35 35 35 35 35 35 35 35 34 33 33 32 31 30 29 28 27 26 26 25 25 24 24 24 25 26 28 29 30 32 34 34 35 35 35 36 36
38 38 38 38 39 38 38 38 38 38 38 37 36 36 35 34 33 31 30 29 28 27 26 26 26 25 26 26 27 29 30 32 33 34 35 35 35 35
Wind_Direction
263 258 256 253 250 247 244 241 239 238 237 236 236 235 235 234 233 234 235 236 236 236 237 238 238 239 240 241 243 244 247 249 251 254 257 260 264 267
274 269 266 263 258 254 250 247 243 241 239 238 238 237 236 236 235 234 234 235 235 236 237 238 239 240 241 242 243 245 247 249 251 253 255 258 261 264
290 281 275 270 264 259 255 252 247 244 241 239 239 237 236 235 235 235 235 235 234 235 236 237 240 241 241 241 243 245 246 249 251 253 254 257 259 261
307 297 289 281 273 267 261 256 252 247 243 240 240 239 238 237 236 236 235 235 234 234 235 237 239 241 242 242 243 245 245 247 250 252 253 255 257 259
320 312 305 295 284 275 267 261 256 252 247 243 241 240 240 239 238 237 236 235 234 235 236 237 238 240 241 242 243 244 245 247 248 250 251 252 255 258
332 324 317 308 298 287 277 268 262 257 251 247 244 242 241 241 239 238 238 236 235 235 236 236 237 239 240 240 241 242 243 245 247 248 250 251 254 257
341 334 328 320 312 301 291 278 268 262 256 251 247 245 243 242 241 240 239 238 237 236 236 237 237 238 239 240 241 241 242 244 245 246 246 248 252 254
345 341 334 328 322 314 304 291 278 267 260 254 250 248 246 244 243 242 240 239 238 237 237 237 238 238 239 239 240 241 241 241 243 244 245 248 250 252
345 344 340 335 330 324 315 305 292 278 267 259 254 251 249 247 245 244 242 240 239 239 238 237 238 239 239 240 240 240 240 241 242 243 244 246 248 250
343 343 341 338 334 328 322 314 303 289 277 266 258 253 250 248 246 244 242 241 240 240 240 239 239 239 239 240 240 239 240 240 240 242 243 245 246 248
339 340 339 338 336 332 326 319 310 298 286 275 265 257 252 250 248 245 243 243 240 240 241 240 239 239 239 238 239 239 239 239 239 240 242 243 244 246
336 336 336 336 335 332 328 323 316 307 294 282 272 264 257 254 251 246 243 241 241 241 242 243 241 240 239 238 238 239 240 240 240 240 241 240 242 244
331 331 331 332 333 332 329 325 319 312 303 293 282 272 263 258 254 250 246 244 242 242 242 243 243 242 239 238 238 238 238 240 240 239 241 241 242 244
326 327 327 327 327 327 327 325 321 317 310 303 294 283 273 265 259 254 250 247 244 243 243 244 244 243 242 240 239 238 238 238 238 238 239 242 243 243
321 322 322 323 324 324 323 321 320 317 312 306 300 291 283 274 268 262 255 251 248 246 246 247 245 244 244 244 242 240 240 239 238 238 239 241 240 241
316 317 319 319 319 319 319 318 316 314 312 307 300 294 289 284 278 271 261 254 250 248 248 247 246 246 245 245 244 242 241 240 240 238 238 238 239 240
310 312 313 314 315 315 314 314 313 310 308 305 302 296 290 287 283 277 268 260 254 251 251 248 246 245 244 244 244 242 241 240 240 239 240 239 238 239
305 306 307 308 309 310 309 309 309 308 305 302 300 296 293 288 284 278 272 265 260 256 254 249 246 244 244 245 244 243 240 238 238 239 240 240 237 237
303 303 303 303 303 304 304 303 303 302 301 299 297 293 291 288 284 280 275 269 264 260 257 252 249 247 246 244 242 242 240 238 238 237 238 239 237 236
301 301 300 300 299 299 298 298 298 297 296 294 293 290 287 285 283 279 274 270 266 263 260 254 250 249 247 245 242 239 238 237 236 236 236 235 234 232
301 299 298 297 297 296 295 294 292 291 291 290 288 287 285 282 280 278 274 271 268 264 261 257 251 248 246 243 241 238 236 234 233 234 233 232 232 232
299 298 297 296 295 294 293 292 290 288 286 285 284 283 281 280 278 276 273 270 268 264 261 259 255 250 246 243 241 240 237 235 234 233 233 233 233 232
297 296 295 294 293 292 290 289 288 287 285 283 280 279 278 276 275 273 271 268 266 263 261 258 255 252 248 244 242 240 238 235 233 232 233 232 231 231
Height
5765 5765 5766 5767 5768 5770 5772 5775 5778 5781 5784 5787 5790 5793 5797 5801 5805 5809 5813 5817 5820 5824 5828 5831 5835 5839 5842 5845 5848 5850 5852 5855 5856 5858 5859 5860 5861 5862
5759 5759 5759 5759 5760 5761 5763 5765 5767 5771 5774 5777 5779 5782 5786 5791 5794 5798 5803 5806 5810 5814 5818 5822 5826 5830 5833 5837 5839 5842 5845 5847 5849 5851 5853 5854 5855 5856
5754 5753 5753 5752 5752 5753 5754 5755 5757 5760 5763 5766 5768 5771 5775 5779 5783 5787 5791 5795 5799 5804 5808 5811 5815 5819 5823 5827 5831 5834 5837 5839 5842 5844 5845 5847 5848 5849
5749 5747 5746 5745 5744 5744 5744 5745 5746 5749 5752 5755 5757 5760 5763 5767 5771 5776 5780 5784 5788 5793 5797 5801 5805 5809 5813 5817 5821 5824 5827 5830 5833 5835 5838 5839 5841 5842
5744 5742 5740 5738 5736 5736 5735 5735 5736 5738 5740 5744 5746 5748 5752 5755 5759 5764 5768 5773 5777 5781 5785 5790 5794 5798 5802 5806 5810 5814 5817 5821 5824 5826 5829 5831 5833 5834
5740 5737 5735 5732 5730 5728 5727 5726 5727 5727 5729 5732 5735 5737 5740 5743 5748 5752 5756 5760 5765 5769 5774 5778 5783 5787 5791 5795 5799 5803 5807 5810 5813 5816 5819 5822 5824 5826
5736 5733 5730 5727 5724 5722 5720 5718 5718 5718 5719 5721 5724 5726 5729 5732 5736 5740 5744 5748 5753 5757 5762 5767 5771 5775 5779 5784 5788 5792 5796 5799 5803 5806 5809 5812 5814 5817
5734 5730 5727 5723 5720 5717 5715 5712 5711 5711 5711 5712 5714 5716 5718 5721 5724 5728 5732 5737 5743 5748 5750 5755 5759 5764 5768 5773 5776 5780 5784 5788 5792 5796 5799 5802 5805 5807
5732 5728 5724 5720 5717 5713 5711 5709 5707 5705 5705 5705 5706 5707 5709 5712 5715 5719 5722 5725 5731 5734 5738 5743 5747 5752 5757 5761 5765 5769 5773 5777 5781 5785 5788 5792 5794 5797
5730 5726 5722 5718 5714 5711 5708 5705 5703 5701 5700 5699 5700 5700 5701 5703 5706 5709 5711 5716 5720 5724 5728 5732 5736 5741 5745 5749 5753 5757 5762 5766 5770 5774 5777 5781 5784 5787
5728 5724 5720 5716 5712 5709 5706 5703 5700 5698 5696 5695 5695 5694 5695 5696 5698 5700 5703 5706 5711 5714 5717 5722 5725 5729 5733 5737 5742 5746 5750 5754 5759 5762 5766 5770 5773 5776
5726 5722 5718 5714 5711 5707 5704 5701 5698 5695 5693 5691 5690 5690 5690 5690 5691 5692 5694 5697 5701 5705 5708 5711 5714 5717 5722 5726 5730 5734 5738 5742 5746 5750 5754 5758 5761 5764
5723 5720 5716 5712 5709 5705 5702 5698 5695 5692 5690 5688 5686 5685 5685 5684 5685 5685 5687 5689 5692 5695 5698 5700 5704 5707 5711 5715 5719 5723 5727 5731 5734 5738 5742 5746 5750 5753
5720 5717 5713 5709 5706 5703 5699 5696 5693 5690 5687 5685 5683 5681 5680 5679 5679 5679 5680 5681 5683 5686 5688 5691 5694 5697 5700 5704 5708 5711 5715 5719 5723 5727 5731 5734 5738 5741
5716 5713 5710 5706 5703 5699 5696 5693 5690 5687 5684 5682 5679 5677 5676 5674 5673 5673 5673 5674 5675 5677 5679 5681 5684 5687 5690 5694 5697 5700 5704 5708 5712 5716 5719 5723 5726 5729
5711 5708 5705 5702 5699 5696 5692 5689 5686 5684 5681 5678 5676 5674 5672 5670 5668 5667 5667 5667 5668 5670 5671 5673 5675 5678 5680 5683 5686 5690 5693 5697 5701 5704 5708 5712 5715 5718
5706 5703 5700 5697 5694 5691 5688 5685 5682 5680 5677 5675 5672 5670 5668 5666 5664 5662 5661 5661 5662 5663 5664 5665 5667 5668 5671 5674 5677 5680 5683 5687 5690 5694 5696 5700 5704 5708
5701 5698 5695 5692 5689 5686 5683 5680 5678 5675 5672 5670 5668 5666 5663 5661 5659 5658 5656 5656 5656 5656 5656 5657 5658 5660 5662 5664 5667 5670 5673 5676 5680 5683 5686 5689 5693 5697
5694 5691 5688 5685 5683 5680 5677 5675 5672 5670 5667 5665 5662 5660 5658 5656 5654 5653 5651 5650 5650 5649 5649 5649 5650 5651 5653 5655 5658 5660 5663 5666 5669 5672 5676 5680 5683 5687
5686 5683 5680 5678 5675 5672 5670 5668 5665 5663 5661 5659 5656 5654 5652 5651 5649 5647 5646 5644 5644 5643 5643 5642 5643 5643 5645 5646 5648 5651 5653 5656 5659 5663 5666 5669 5673 5676
5677 5674 5671 5669 5666 5664 5661 5659 5656 5654 5652 5651 5649 5647 5645 5644 5642 5641 5640 5639 5638 5637 5636 5636 5635 5636 5637 5638 5640 5642 5644 5647 5650 5653 5656 5659 5663 5667
5667 5664 5661 5659 5656 5654 5651 5649 5647 5644 5642 5641 5639 5638 5637 5636 5634 5633 5632 5632 5631 5630 5630 5629 5629 5629 5630 5631 5632 5634 5636 5639 5641 5644 5647 5651 5654 5658
5656 5653 5650 5647 5644 5642 5639 5637 5635 5633 5631 5630 5628 5627 5626 5626 5625 5624 5624 5623 5623 5622 5622 5622 5622 5622 5622 5623 5624 5626 5628 5630 5633 5636 5639 5642 5646 5649